Petersburg, AK

2:29 AM AKDT on June 23, 2017 (GMT -0800)
Johnson Petersburg

Weather History for PAPG - September, 2013

Change the Weather History Date:

Wednesday, September 25, 2013

  Actual Average Record
Temperature  
Mean Temperature 46 °F -  
Max Temperature 57 °F 51 °F 69 °F (1989)
Min Temperature 35 °F 41 °F 33 °F (1984)
Degree Days  
Heating Degree Days 19    
Moisture  
Dew Point 40 °F    
Average Humidity 85    
Maximum Humidity 93    
Minimum Humidity 59    
Precipitation  
Precipitation 0.00 in - - ()
Sea Level Pressure  
Sea Level Pressure 30.13 in    
Wind  
Wind Speed 1 mph (NE)    
Max Wind Speed 6 mph    
Max Gust Speed -    
Visibility 7 miles    
Events Fog    
Averages and records for this station are not official NWS values.
T = Trace of Precipitation, MM = Missing Value Source: NWS Daily Summary

Daily Weather History Graph

Daily Weather History Graph

Search for Another Location

Airport or City:

Trip Planner

Search our weather history database for the weather conditions in past years. The results will help you decide how hot, cold, wet, or windy it might be!

Date:

Astronomy

Sep. 25, 2013 Rise Set
Actual Time 6:43 AM AKDT 6:41 PM AKDT
Civil Twilight 6:05 AM AKDT 7:19 PM AKDT
Nautical Twilight 5:21 AM AKDT 8:04 PM AKDT
Astronomical Twilight 4:33 AM AKDT 8:51 PM AKDT
Moon 9:52 PM AKDT (9/25) 1:57 PM AKDT (9/25)
Length of Visible Light 13h 13m
Length of Day
11h 57m
Waning Gibbous, 62% of the Moon is Illuminated
Sep 25
Waning Gibbous
Sep 26
Last Quarter
Oct 4
New
Oct 11
First Quarter
Oct 18
Full

Hourly Weather History & Observations

Time (AKDT) Temp. Windchill Dew Point Humidity Pressure Visibility Wind Dir Wind Speed Gust Speed Precip Events Conditions
12:36 AM 42.8 °F - 39.2 °F 87% 30.13 in 10.0 mi Calm Calm - N/A   Clear
1:56 AM 41.0 °F - 39.2 °F 93% 30.12 in 9.0 mi Calm Calm - N/A   Clear
2:16 AM 39.2 °F - 37.4 °F 93% 30.11 in 10.0 mi Calm Calm - N/A   Clear
2:36 AM 39.2 °F 37.0 °F 37.4 °F 93% 30.12 in 10.0 mi SSW 3.5 mph - N/A   Clear
3:16 AM 37.4 °F 34.9 °F 35.6 °F 93% 30.13 in 3.0 mi WSW 3.5 mph - N/A   Partly Cloudy
3:36 AM 37.4 °F - 35.6 °F 93% 30.14 in 0.8 mi Calm Calm - N/A   Overcast
4:16 AM 35.6 °F - 33.8 °F 93% 30.14 in 2.0 mi Calm Calm - N/A   Scattered Clouds
5:16 AM 35.6 °F - 33.8 °F 93% 30.15 in 1.0 mi Calm Calm - N/A   Mostly Cloudy
5:36 AM 35.6 °F - 33.8 °F 93% 30.15 in 3.0 mi Calm Calm - N/A   Clear
5:56 AM 37.4 °F - 35.6 °F 93% 30.15 in 2.5 mi Calm Calm - N/A   Mostly Cloudy
6:28 AM 35.6 °F - 33.8 °F 93% 30.15 in 0.5 mi Calm Calm - N/A Fog Fog
6:55 AM 35.6 °F - 33.8 °F 93% 30.16 in 0.5 mi Calm Calm - N/A Fog Fog
7:16 AM 35.6 °F - 33.8 °F 93% 30.16 in 0.5 mi Calm Calm - N/A   Scattered Clouds
7:36 AM 37.4 °F - 35.6 °F 93% 30.16 in 0.2 mi Calm Calm - N/A   Mostly Cloudy
7:55 AM 37.4 °F - 35.6 °F 93% 30.17 in 0.2 mi Calm Calm - N/A Fog Fog
8:16 AM 37.4 °F - 35.6 °F 93% 30.17 in 0.2 mi Calm Calm - N/A   Overcast
8:36 AM 39.2 °F - 37.4 °F 93% 30.17 in 0.2 mi Calm Calm - N/A   Overcast
8:56 AM 39.2 °F - 37.4 °F 93% 30.18 in 0.2 mi Calm Calm - N/A   Mostly Cloudy
9:16 AM 39.2 °F - 37.4 °F 93% 30.18 in 0.2 mi Calm Calm - N/A   Mostly Cloudy
9:36 AM 41.0 °F - 37.4 °F 87% 30.18 in 0.2 mi Calm Calm - N/A   Mostly Cloudy
9:56 AM 41.0 °F 39.0 °F 39.2 °F 93% 30.18 in 0.2 mi East 3.5 mph - N/A   Mostly Cloudy
10:16 AM 42.8 °F 41.1 °F 39.2 °F 87% 30.17 in 0.5 mi ENE 3.5 mph - N/A   Mostly Cloudy
10:55 AM 42.8 °F - 41.0 °F 93% 30.18 in 0.8 mi Calm Calm - N/A   Mostly Cloudy
11:18 AM 42.8 °F 41.1 °F 39.2 °F 87% 30.17 in 10.0 mi North 3.5 mph - N/A   Mostly Cloudy
11:36 AM 44.6 °F - 41.0 °F 87% 30.17 in 10.0 mi Calm Calm - N/A   Partly Cloudy
12:16 PM 44.6 °F 43.1 °F 42.8 °F 93% 30.16 in 10.0 mi NNE 3.5 mph - N/A   Partly Cloudy
12:36 PM 46.4 °F 45.2 °F 42.8 °F 87% 30.15 in 10.0 mi NNE 3.5 mph - N/A   Partly Cloudy
12:56 PM 48.2 °F - 41.0 °F 76% 30.15 in 10.0 mi NE 3.5 mph - N/A   Partly Cloudy
1:36 PM 51.8 °F - 42.8 °F 71% 30.14 in 10.0 mi Calm Calm - N/A   Partly Cloudy
1:56 PM 53.6 °F - 44.6 °F 72% 30.14 in 10.0 mi ENE 4.6 mph - N/A   Partly Cloudy
2:16 PM 51.8 °F - 42.8 °F 71% 30.14 in 10.0 mi NE 5.8 mph - N/A   Partly Cloudy
2:36 PM 53.6 °F - 44.6 °F 72% 30.13 in 10.0 mi ENE 4.6 mph - N/A   Partly Cloudy
2:45 PM 53.6 °F - 42.8 °F 67% 30.17 in 10.0 mi East 3.5 mph - N/A   Clear
2:55 PM 55.4 °F - 44.6 °F 67% 30.13 in 10.0 mi Calm Calm - N/A   Scattered Clouds
3:36 PM 57.2 °F - 42.8 °F 59% 30.12 in 10.0 mi ENE 3.5 mph - N/A   Scattered Clouds
3:55 PM 55.4 °F - 42.8 °F 63% 30.12 in 10.0 mi North 3.5 mph - N/A   Scattered Clouds
4:16 PM 55.4 °F - 42.8 °F 63% 30.12 in 10.0 mi NE 4.6 mph - N/A   Scattered Clouds
4:56 PM 53.6 °F - 42.8 °F 67% 30.11 in 10.0 mi Calm Calm - N/A   Scattered Clouds
5:56 PM 51.8 °F - 44.6 °F 76% 30.11 in 10.0 mi Calm Calm - N/A   Scattered Clouds
6:16 PM 51.8 °F - 44.6 °F 76% 30.11 in 10.0 mi Calm Calm - N/A   Scattered Clouds
6:36 PM 50.0 °F - 44.6 °F 82% 30.10 in 10.0 mi East 5.8 mph - N/A   Scattered Clouds
6:55 PM 46.4 °F - 42.8 °F 87% 30.10 in 10.0 mi Calm Calm - N/A   Scattered Clouds
7:16 PM 46.4 °F 45.2 °F 42.8 °F 87% 30.10 in 10.0 mi SW 3.5 mph - N/A   Scattered Clouds
7:36 PM 46.4 °F 44.3 °F 42.8 °F 87% 30.10 in 10.0 mi SSW 4.6 mph - N/A   Scattered Clouds
7:56 PM 46.4 °F 43.5 °F 42.8 °F 87% 30.11 in 10.0 mi West 5.8 mph - N/A   Clear
8:16 PM 46.4 °F 44.3 °F 42.8 °F 87% 30.10 in 10.0 mi SSE 4.6 mph - N/A   Clear
8:36 PM 46.4 °F 45.2 °F 42.8 °F 87% 30.09 in 10.0 mi West 3.5 mph - N/A   Clear
8:56 PM 46.4 °F - 42.8 °F 87% 30.09 in 10.0 mi Calm Calm - N/A   Clear
9:36 PM 44.6 °F - 41.0 °F 87% 30.09 in 10.0 mi Calm Calm - N/A   Clear
10:16 PM 44.6 °F - 42.8 °F 93% 30.08 in 10.0 mi Calm Calm - N/A   Mostly Cloudy
10:36 PM 44.6 °F - 42.8 °F 93% 30.07 in 10.0 mi Calm Calm - N/A   Overcast
10:56 PM 44.6 °F 43.1 °F 42.8 °F 93% 30.07 in 10.0 mi WSW 3.5 mph - N/A   Overcast
11:16 PM 46.4 °F - 42.8 °F 87% 30.06 in 10.0 mi Calm Calm - N/A   Overcast
11:36 PM 46.4 °F - 42.8 °F 87% 30.06 in 10.0 mi Calm Calm - N/A   Overcast
11:56 PM 46.4 °F - 42.8 °F 87% 30.06 in 10.0 mi Calm Calm - N/A   Overcast